Date String (YYYY-MM-DD hh:mm:ss) UTC,Instrument flags,absolute air pressure of the measurement (hPa),sample flow rate (lpm),inlet stack bypass flow (lpm),air temperature of the measurement (°C),ambient temperature measured by the external sensor (°C),aerosol sample conditioner tube jacket temperature (°C),OPC LED temperature (°C),internal box temperature (°C),relative humidity of the measurement (%),span deviation,mass concentration of particles derived from Lorenz-Mie calculation of OPC scattering (μg/m³),mass concentration of particles derived from Lorenz-Mie calculation of OPC scattering (μg/m³),mass concentration of particles derived from Lorenz-Mie calculation of OPC scattering (μg/m³)
DateTimeUTC,F1_M11,P_M11,Q1_M11,Q2_M11,T1_M11,T2_M11,T3_M11,T4_M11,T5_M11,U1_M11,ZSPAN_M11,X0_M11,X2_M11,X1_M11
2024-05-11 18:00:00,SystemResetWarning,0828.4,5.00,000.00,024.9,024.4,000.0,033.0,026.7,024.0,0000.0,0016.83,0008.06,0007.35
2024-05-11 18:01:00,SystemResetWarning,0828.3,5.00,000.00,024.9,024.5,000.0,033.0,026.8,023.7,0000.0,0016.74,0008.05,0007.37
2024-05-11 18:02:00,SystemResetWarning,0828.3,5.00,000.00,025.0,024.6,000.0,033.1,026.9,023.6,0000.6,0016.70,0008.09,0007.43
2024-05-11 18:03:00,SystemResetWarning,0828.2,5.01,000.00,025.0,024.6,000.0,033.1,026.9,023.5,0002.4,0015.87,0008.14,0007.49
2024-05-11 18:04:00,SystemResetWarning,0828.2,5.00,000.00,025.1,024.7,000.0,033.2,027.0,023.1,0002.6,0014.73,0008.19,0007.55
2024-05-11 18:05:00,SystemResetWarning,0828.2,5.00,000.00,025.2,024.8,000.0,033.2,027.0,023.5,0002.3,0014.36,0008.24,0007.61
2024-05-11 18:06:00,SystemResetWarning,0828.2,4.99,000.00,025.2,024.9,000.0,033.2,027.1,023.4,0001.9,0014.50,0008.26,0007.65
2024-05-11 18:07:00,SystemResetWarning,0828.2,5.00,000.00,025.2,024.2,000.0,033.3,026.8,023.6,0001.9,0014.67,0008.31,0007.68
2024-05-11 18:08:00,SystemResetWarning,0828.2,5.01,000.00,024.9,022.3,000.0,033.4,025.8,023.5,0001.0,0014.63,0008.30,0007.68
2024-05-11 18:09:00,SystemResetWarning,0828.1,5.01,000.00,024.6,022.2,000.0,033.4,025.6,023.6,0000.0,0014.26,0008.28,0007.69
2024-05-11 18:10:00,SystemResetWarning,0828.1,4.99,000.00,024.6,022.5,000.0,033.2,025.8,024.1,0000.0,0014.40,0008.30,0007.70
2024-05-11 18:11:00,SystemResetWarning,0828.1,5.00,000.00,024.6,022.8,000.0,033.1,026.0,024.2,0000.0,0014.46,0008.31,0007.69
2024-05-11 18:12:00,SystemResetWarning,0828.1,5.00,000.00,024.6,023.2,000.0,033.1,026.2,023.7,0000.0,0014.21,0008.36,0007.71
2024-05-11 18:13:00,SystemResetWarning,0828.2,5.00,000.00,024.7,023.5,000.0,033.0,026.3,023.8,0000.0,0014.36,0008.40,0007.72
2024-05-11 18:14:00,SystemResetWarning,0828.1,5.00,000.00,024.7,023.7,000.0,033.0,026.5,023.8,0000.0,0014.50,0008.35,0007.72
2024-05-11 18:15:00,SystemResetWarning,0828.1,5.00,000.00,024.8,023.9,000.0,033.0,026.6,023.7,0000.0,0015.13,0008.36,0007.73
2024-05-11 18:16:00,SystemResetWarning,0828.1,5.00,000.00,024.9,024.1,000.0,033.0,026.7,023.6,0000.0,0015.93,0008.42,0007.76
2024-05-11 18:17:00,SystemResetWarning,0828.1,4.99,000.00,024.9,024.2,000.0,033.0,026.7,023.6,0000.0,0017.28,0008.50,0007.82
2024-05-11 18:18:00,SystemResetWarning,0828.0,4.99,000.00,025.0,024.4,000.0,033.1,026.8,023.7,0000.0,0017.44,0008.56,0007.85
2024-05-11 18:19:00,SystemResetWarning,0828.0,4.99,000.00,025.0,024.5,000.0,033.1,026.9,023.6,0000.0,0017.75,0008.62,0007.90
2024-05-11 18:20:00,SystemResetWarning,0828.1,5.01,000.00,025.1,024.6,000.0,033.1,026.9,023.7,0000.0,0018.48,0008.70,0007.96
2024-05-11 18:21:00,SystemResetWarning,0828.1,5.00,000.00,025.1,024.7,000.0,033.1,027.0,024.0,0001.3,0018.79,0008.72,0008.00
2024-05-11 18:22:00,SystemResetWarning,0828.1,5.01,000.00,025.2,024.8,000.0,033.2,027.1,023.4,0001.2,0019.28,0008.77,0008.03
2024-05-11 18:23:00,SystemResetWarning,0827.9,5.00,000.00,025.2,024.2,000.0,033.3,026.8,023.4,0000.0,0020.98,0008.79,0008.08
2024-05-11 18:24:00,SystemResetWarning,0827.8,4.99,000.00,024.8,022.0,000.0,033.3,025.6,023.6,0001.0,0021.42,0008.80,0008.08
2024-05-11 18:25:00,SystemResetWarning,0827.8,5.02,000.00,024.4,021.1,000.0,033.3,025.1,024.2,0001.9,0021.51,0008.86,0008.10
2024-05-11 18:26:00,SystemResetWarning,0827.8,4.98,000.00,024.3,021.5,000.0,033.2,025.2,025.0,0001.5,0021.21,0008.90,0008.13
2024-05-11 18:27:00,SystemResetWarning,0827.7,5.00,000.00,024.3,022.0,000.0,033.0,025.4,025.1,0001.9,0020.12,0008.90,0008.12
2024-05-11 18:28:00,SystemResetWarning,0827.8,5.02,000.00,024.3,022.4,000.0,032.9,025.7,024.8,0001.4,0018.54,0008.86,0008.09
2024-05-11 18:29:00,SystemResetWarning,0827.8,5.00,000.00,024.3,022.8,000.0,032.8,025.9,024.7,0001.6,0018.71,0008.83,0008.09
2024-05-11 18:30:00,SystemResetWarning,0827.8,4.99,000.00,024.4,023.1,000.0,032.8,026.1,024.7,0001.9,0018.62,0008.84,0008.08
2024-05-11 18:31:00,SystemResetWarning,0827.8,5.00,000.00,024.4,023.4,000.0,032.8,026.2,024.6,0001.7,0018.32,0008.83,0008.07
2024-05-11 18:32:00,SystemResetWarning,0827.8,5.00,000.00,024.5,023.6,000.0,032.8,026.3,024.3,0002.0,0018.18,0008.83,0008.05
2024-05-11 18:33:00,SystemResetWarning,0827.8,5.00,000.00,024.6,023.8,000.0,032.8,026.4,024.4,0001.0,0017.39,0008.80,0008.02
2024-05-11 18:34:00,SystemResetWarning,0827.8,5.01,000.00,024.6,024.0,000.0,032.8,026.5,024.0,0000.7,0015.68,0008.76,0007.98
2024-05-11 18:35:00,SystemResetWarning,0827.7,5.01,000.00,024.7,024.1,000.0,032.8,026.6,023.5,0001.0,0015.51,0008.70,0007.93
2024-05-11 18:36:00,SystemResetWarning,0827.7,5.00,000.00,024.8,024.2,000.0,032.8,026.6,023.7,0000.0,0015.65,0008.66,0007.89
2024-05-11 18:37:00,SystemResetWarning,0827.7,4.99,000.00,024.8,024.3,000.0,032.9,026.7,023.6,0000.0,0015.39,0008.63,0007.82
2024-05-11 18:38:00,SystemResetWarning,0827.7,5.00,000.00,024.9,024.4,000.0,032.9,026.8,022.6,0000.0,0015.43,0008.55,0007.77
2024-05-11 18:39:00,SystemResetWarning,0827.7,4.99,000.00,024.9,024.5,000.0,032.9,026.8,023.2,0000.0,0015.80,0008.49,0007.70
2024-05-11 18:40:00,SystemResetWarning,0827.7,5.01,000.00,025.0,024.6,000.0,033.0,026.9,023.3,0000.0,0015.56,0008.45,0007.67
2024-05-11 18:41:00,SystemResetWarning,0827.7,5.01,000.00,025.1,024.7,000.0,033.0,027.0,023.7,0000.0,0015.32,0008.38,0007.65
2024-05-11 18:42:00,SystemResetWarning,0827.7,4.99,000.00,025.1,024.8,000.0,033.1,027.0,023.2,0000.0,0015.17,0008.29,0007.60
2024-05-11 18:43:00,SystemResetWarning,0827.7,4.99,000.00,025.2,024.8,000.0,033.1,027.0,023.2,0000.0,0014.66,0008.25,0007.57
2024-05-11 18:44:00,SystemResetWarning,0827.6,4.99,000.00,025.1,023.9,000.0,033.2,026.6,023.2,0000.0,0015.37,0008.24,0007.57
2024-05-11 18:45:00,SystemResetWarning,0827.7,5.00,000.00,024.7,021.7,000.0,033.3,025.4,023.7,0000.0,0016.24,0008.25,0007.58
2024-05-11 18:46:00,SystemResetWarning,0827.4,5.01,000.00,024.4,021.2,000.0,033.2,025.0,024.9,0000.0,0016.05,0008.28,0007.62
2024-05-11 18:47:00,SystemResetWarning,0827.4,4.99,000.00,024.3,021.7,000.0,033.1,025.2,024.9,0000.0,0015.88,0008.29,0007.64
2024-05-11 18:48:00,SystemResetWarning,0827.4,4.99,000.00,024.2,022.1,000.0,033.0,025.5,025.0,0000.0,0016.17,0008.27,0007.69
2024-05-11 18:49:00,SystemResetWarning,0827.4,5.00,000.00,024.3,022.5,000.0,032.9,025.7,025.6,0000.0,0016.60,0008.31,0007.73
2024-05-11 18:50:00,SystemResetWarning,0827.4,5.01,000.00,024.3,022.9,000.0,032.8,026.0,026.1,0000.0,0016.27,0008.37,0007.77
2024-05-11 18:51:00,SystemResetWarning,0827.4,5.01,000.00,024.4,023.2,000.0,032.8,026.1,026.3,0000.0,0016.51,0008.40,0007.77
2024-05-11 18:52:00,SystemResetWarning,0827.3,5.01,000.00,024.4,023.4,000.0,032.8,026.2,025.4,0001.0,0017.17,0008.50,0007.81
2024-05-11 18:53:00,SystemResetWarning,0827.4,4.99,000.00,024.5,023.7,000.0,032.8,026.3,024.8,0001.3,0017.74,0008.69,0007.91
2024-05-11 18:54:00,SystemResetWarning,0827.4,4.99,000.00,024.6,023.8,000.0,032.8,026.4,025.0,0002.2,0018.55,0008.88,0008.06
2024-05-11 18:55:00,SystemResetWarning,0827.3,5.00,000.00,024.6,024.0,000.0,032.8,026.5,024.5,0002.5,0018.93,0009.00,0008.17
2024-05-11 18:56:00,SystemResetWarning,0827.4,5.00,000.00,024.7,024.2,000.0,032.8,026.6,024.3,0001.7,0018.84,0009.09,0008.22
2024-05-11 18:57:00,SystemResetWarning,0827.3,5.01,000.00,024.8,024.3,000.0,032.8,026.7,024.5,0000.9,0020.02,0009.13,0008.25
2024-05-11 18:58:00,SystemResetWarning,0827.4,5.01,000.00,024.8,024.4,000.0,032.9,026.7,023.8,0000.6,0020.16,0009.17,0008.27
2024-05-11 18:59:00,SystemResetWarning,0827.4,4.99,000.00,024.9,024.5,000.0,032.9,026.8,024.2,0001.1,0020.16,0009.21,0008.30
